This demonstration page uses our WeatherBlox Daily Observations layout. Learn more.

Left ArrowRight Arrow

Hourly Observations for October 3, 2022

Temp ( °F °C ) Dew Point ( °F °C ) Humidity (%) Winds ( mph kmh ) Pressure ( in mb ) Visibility ( mi km ) Precip ( " mm )
12:15 am 00:15 Clear 62 16.6 39 4.1 43 43 SSE 15 24 30.13 1020 10 16 0.00 0.00
12:35 am 00:35 Clear 62 16.5 39 3.7 42 42 SSE 14 22 30.14 1020 10 16 0.00 0.00
12:55 am 00:55 Clear 61 16 38 3.6 43 43 S 12 19 30.14 1021 10 16 0.00 0.00
1:15 am 01:15 Clear 60 15.5 38 3.5 45 45 SSE 13 20 30.14 1021 10 16 0.00 0.00
1:35 am 01:35 Clear 58 14.7 38 3.5 47 47 SSE 10 17 30.15 1021 10 16 0.00 0.00
1:55 am 01:55 Clear 57 14 38 3.5 49 49 SSE 9 15 30.15 1021 10 16 0.00 0.00
2:15 am 02:15 Clear 57 13.7 38 3.3 49 49 SSE 9 15 30.15 1021 10 16 0.00 0.00
2:35 am 02:35 Clear 56 13.2 38 3.3 51 51 SSE 9 15 30.15 1021 10 16 0.00 0.00
2:55 am 02:55 Clear 56 13.6 38 3.2 49 49 S 8 13 30.15 1021 10 16 0.00 0.00
3:15 am 03:15 Clear 55 12.5 38 3.2 53 53 Calm 30.16 1021 10 16 0.00 0.00
3:35 am 03:35 Clear 53 11.4 38 3.3 57 57 SSE 7 11 30.16 1021 10 16 0.00 0.00
3:55 am 03:55 Clear 53 11.5 38 3.4 57 57 SSE 8 13 30.16 1021 10 16 0.00 0.00
4:15 am 04:15 Clear 51 10.6 38 3.3 61 61 SSE 7 11 30.17 1022 10 16 0.00 0.00
4:35 am 04:35 Clear 51 10.4 38 3.3 61 61 SSE 6 9 30.17 1022 10 16 0.00 0.00
4:55 am 04:55 Clear 50 9.8 38 3.3 64 64 S 5 7 30.18 1022 10 16 0.00 0.00
5:15 am 05:15 Clear 49 9.5 38 3.2 65 65 SE 7 11 30.17 1022 10 16 0.00 0.00
5:35 am 05:35 Clear 48 8.8 38 3.1 67 67 S 6 9 30.17 1022 10 16 0.00 0.00
5:55 am 05:55 Clear 49 9.5 38 3.5 66 66 S 8 13 30.17 1022 10 16 0.00 0.00
6:15 am 06:15 Clear 48 8.7 38 3.5 70 70 S 7 11 30.17 1022 10 16 0.00 0.00
6:35 am 06:35 Clear 48 9 38 3.5 68 68 S 9 15 30.17 1022 10 16 0.00 0.00
6:55 am 06:55 Clear 49 9.5 38 3.4 66 66 S 9 15 30.17 1022 10 16 0.00 0.00
7:15 am 07:15 Clear 50 10.1 38 3.3 63 63 S 9 15 30.16 1021 10 16 0.00 0.00
7:35 am 07:35 Clear 49 9.6 38 3.2 64 64 SSE 7 11 30.17 1022 10 16 0.00 0.00
7:55 am 07:55 Sunny 46 8 38 3.1 71 71 SE 7 11 30.18 1022 10 16 0.00 0.00
8:15 am 08:15 Sunny 49 9.3 38 3.5 67 67 SSE 7 11 30.17 1022 10 16 0.00 0.00
8:35 am 08:35 Sunny 52 11.3 39 3.8 60 60 SSE 8 13 30.15 1021 10 16 0.00 0.00
8:55 am 08:55 Sunny 56 13.4 39 3.9 53 53 SSE 10 17 30.14 1021 10 16 0.00 0.00
9:15 am 09:15 Sunny 59 15.1 38 3.6 46 46 S 12 19 30.13 1020 10 16 0.00 0.00
9:35 am 09:35 Sunny 61 16 38 3.4 43 43 SSE 13 20 30.12 1020 10 16 0.00 0.00
9:55 am 09:55 Sunny 62 16.7 38 3.6 42 42 S 10 17 30.12 1020 10 16 0.00 0.00
10:15 am 10:15 Sunny 64 17.6 38 3.6 39 39 S 13 20 30.11 1020 10 16 0.00 0.00
10:35 am 10:35 Sunny 67 19.5 39 3.9 36 36 S 14 22 30.09 1019 10 16 0.00 0.00
10:55 am 10:55 Sunny 68 20.2 38 3.5 33 33 S 14 22 30.09 1019 10 16 0.00 0.00
11:15 am 11:15 Sunny 71 21.7 39 3.7 31 31 S 16 26 30.07 1018 10 16 0.00 0.00
11:35 am 11:35 Sunny 71 21.8 38 3.4 30 30 S 16 26 30.06 1018 10 16 0.00 0.00
11:55 am 11:55 Sunny 72 22.2 39 3.7 30 30 S 16 26 30.06 1018 10 16 0.00 0.00
12:15 pm 12:15 Sunny 73 22.5 39 3.8 29 29 S 15 24 30.05 1018 10 16 0.00 0.00
12:35 pm 12:35 Sunny 75 23.7 39 4 28 28 S 17 28 30.04 1017 10 16 0.00 0.00
12:55 pm 12:55 Sunny 75 24.1 39 4 27 27 SSE 17 28 30.02 1017 10 16 0.00 0.00
1:15 pm 13:15 Sunny 75 23.9 39 4.1 28 28 S 17 28 30.01 1016 10 16 0.00 0.00
1:35 pm 13:35 Sunny 76 24.3 38 3.4 26 26 S 20 31 30.01 1016 10 16 0.00 0.00
1:55 pm 13:55 Sunny 76 24.5 38 3.6 26 26 SSE 21 33 30.00 1016 10 16 0.00 0.00
2:15 pm 14:15 Sunny 76 24.6 38 3.5 25 25 S 17 28 29.99 1016 10 16 0.00 0.00
2:35 pm 14:35 Sunny 77 25.1 39 3.8 25 25 SSE 21 33 29.98 1015 10 16 0.00 0.00
2:55 pm 14:55 Sunny 79 26.1 38 3.3 23 23 SSE 23 37 29.96 1014 10 16 0.00 0.00
3:15 pm 15:15 Sunny 81 27.3 37 2.5 20 20 S 24 39 29.94 1014 10 16 0.00 0.00
3:35 pm 15:35 Sunny 79 26 37 2.9 22 22 S 16 26 29.95 1014 10 16 0.00 0.00
3:55 pm 15:55 Sunny 80 26.5 37 3 22 22 SSE 20 31 29.94 1014 10 16 0.00 0.00
4:15 pm 16:15 Sunny 80 26.9 37 2.9 21 21 SSE 20 31 29.92 1013 10 16 0.00 0.00
4:35 pm 16:35 Sunny 82 27.7 37 2.9 20 20 S 23 37 29.91 1013 10 16 0.00 0.00
4:55 pm 16:55 Sunny 81 27 36 2 20 20 SSE 18 30 29.91 1013 10 16 0.00 0.00
5:15 pm 17:15 Sunny 81 27.2 36 2 20 20 SSE 17 28 29.91 1013 10 16 0.00 0.00
5:35 pm 17:35 Sunny 81 27 35 1.8 20 20 SSE 22 35 29.91 1013 10 16 0.00 0.00
5:55 pm 17:55 Sunny 80 26.6 35 1.4 19 19 SSE 18 30 29.91 1013 10 16 0.00 0.00
6:15 pm 18:15 Sunny 79 26 34 1.3 20 20 SSE 13 20 29.92 1013 10 16 0.00 0.00
6:35 pm 18:35 Sunny 77 25.1 35 1.8 22 22 SSE 14 22 29.93 1013 10 16 0.00 0.00
6:55 pm 18:55 Partly Cloudy 75 23.9 36 2.2 24 24 SE 12 19 29.94 1014 10 16 0.00 0.00
7:15 pm 19:15 Mostly Cloudy 73 22.9 37 3 27 27 SE 12 19 29.94 1014 10 16 0.00 0.00
7:35 pm 19:35 Partly Cloudy 72 22.3 37 3 28 28 SSE 12 19 29.96 1014 10 16 0.00 0.00
7:55 pm 19:55 Mostly Cloudy 72 22 38 3.1 29 29 SSE 10 17 29.96 1015 10 16 0.00 0.00
8:15 pm 20:15 Cloudy 72 22 38 3.2 29 29 SSE 10 17 29.97 1015 10 16 0.00 0.00
8:35 pm 20:35 Mostly Cloudy 70 21.3 38 3.3 31 31 SE 10 17 29.98 1015 10 16 0.00 0.00
8:55 pm 20:55 Clear 69 20.8 38 3.4 32 32 SSE 13 20 29.98 1015 10 16 0.00 0.00
9:15 pm 21:15 Clear 69 20.6 38 3.5 32 32 SSE 13 20 29.98 1015 10 16 0.00 0.00
9:35 pm 21:35 Clear 69 20.8 38 3.3 32 32 SSE 13 20 29.98 1015 10 16 0.00 0.00
9:55 pm 21:55 Partly Cloudy 69 20.8 38 3.3 32 32 SSE 14 22 29.99 1016 10 16 0.00 0.00
10:15 pm 22:15 Partly Cloudy 68 20.1 38 3.5 33 33 SSE 14 22 30.00 1016 10 16 0.00 0.00
10:35 pm 22:35 Mostly Cloudy 67 19.7 38 3.6 34 34 S 8 13 30.01 1016 10 16 0.00 0.00
10:55 pm 22:55 Cloudy 67 19.5 39 3.7 35 35 SW 7 11 30.03 1017 10 16 0.00 0.00
11:15 pm 23:15 Cloudy 67 19.2 39 3.8 36 36 W 5 7 30.04 1017 10 16 0.00 0.00
11:35 pm 23:35 Cloudy 65 18.6 40 4.3 39 39 Calm 30.05 1018 10 16 0.00 0.00
11:55 pm 23:55 Mostly Cloudy 65 18.4 40 4.4 40 40 Calm 30.05 1018 10 16 0.00 0.00

Powered by AerisWeather